Wind_Speed
20 20 20 20 20 20 20 21 21 21 21 21 21 21 21 21 21 21 22 22 22 22 22 22 23 24 24 25 26 26 27 28 28 29 30 31 31 31
19 20 21 21 21 21 22 22 22 22 22 22 22 21 21 21 20 21 22 22 22 23 23 24 24 24 24 25 25 26 28 28 29 29 30 30 31 31
20 20 21 22 22 22 23 24 24 23 23 22 22 22 22 22 23 23 23 22 22 22 23 24 24 25 26 26 26 27 28 29 29 30 30 30 31 31
22 22 23 24 24 24 24 24 24 24 24 23 22 22 22 23 23 23 22 22 23 23 24 24 25 26 27 27 28 28 28 29 29 30 30 31 31 31
23 24 25 25 25 25 25 25 25 25 24 23 23 23 23 23 23 23 23 24 24 24 25 25 25 26 27 28 28 29 29 29 29 30 30 30 30 31
24 25 26 26 26 26 26 26 25 25 24 23 23 24 24 24 23 23 24 24 24 25 25 25 25 25 26 26 27 27 28 29 29 29 29 30 31 31
25 25 26 27 26 26 26 25 25 24 24 24 24 24 24 24 24 24 24 24 25 25 25 25 25 25 26 26 26 27 28 29 29 29 30 30 31 31
26 26 27 26 26 26 26 25 24 25 26 25 25 24 24 25 24 24 24 25 25 25 25 25 25 25 25 26 26 27 28 29 29 29 30 29 30 31
26 27 26 26 25 25 25 24 25 25 26 25 25 25 26 26 26 25 25 25 25 24 25 25 25 26 26 26 26 27 27 28 28 27 28 28 28 29
26 26 26 26 26 26 24 25 25 26 26 26 25 25 26 26 26 26 26 26 26 25 25 26 26 25 25 25 26 26 27 27 27 26 27 26 25 26
25 26 26 26 25 25 25 25 25 25 25 25 25 25 26 26 26 26 26 27 26 25 26 27 26 26 26 26 26 26 26 26 26 26 25 24 24 24
25 26 26 26 25 26 26 26 25 25 25 25 25 25 26 26 26 26 26 26 26 25 26 26 26 26 26 26 26 25 25 25 26 25 23 22 22 21
25 25 25 25 25 25 26 26 26 25 26 26 26 26 26 26 26 26 26 26 26 26 26 26 26 26 26 25 25 25 25 25 25 24 22 21 20 20
24 24 24 25 25 25 25 25 25 25 25 26 26 26 26 26 26 26 26 26 26 26 25 25 25 25 25 24 24 24 23 23 23 22 20 20 20 20
24 24 24 24 24 25 25 25 25 25 25 25 25 25 26 25 25 26 26 26 25 25 25 25 25 24 24 23 23 22 22 22 22 20 20 20 21 21
24 24 24 23 23 24 24 24 24 24 24 24 24 25 25 24 24 25 24 24 24 23 23 22 22 22 21 21 21 21 21 21 20 20 19 20 20 20
23 22 23 22 23 23 22 22 22 22 22 22 23 22 22 22 22 22 22 22 21 20 20 20 20 20 19 19 19 19 20 20 20 19 18 19 19 19
21 21 21 20 20 20 20 20 19 19 19 20 20 20 20 19 20 20 20 19 19 18 18 18 18 18 18 18 18 18 18 19 19 19 19 18 18 18
20 19 19 19 19 20 19 18 17 17 18 17 17 18 18 18 18 18 18 17 16 17 17 17 17 17 17 17 17 17 18 18 18 18 18 18 19 19
19 18 18 18 18 18 18 17 16 16 16 16 16 16 17 17 18 17 16 15 15 15 15 16 16 16 17 17 16 17 17 17 17 18 18 18 18 19
17 17 17 16 16 16 16 15 15 15 16 16 16 16 16 16 16 15 14 14 14 14 15 15 15 16 16 16 17 17 17 17 17 17 17 17 17 16
17 17 17 16 16 16 16 15 15 15 15 16 16 16 15 15 14 14 14 13 13 14 14 14 15 15 15 16 16 16 16 16 16 16 16 16 16 16
17 17 17 16 16 16 16 15 15 16 16 16 16 15 14 15 14 14 14 14 14 14 14 15 15 14 14 14 14 14 15 14 14 14 15 15 16 16
Wind_Direction
273 273 275 277 278 278 280 282 285 287 289 290 290 289 288 283 280 282 280 277 277 276 276 278 278 277 277 276 275 273 274 274 274 273 272 273 271 270
273 274 274 275 277 278 280 282 284 286 288 288 289 288 287 286 283 282 280 278 276 276 277 278 280 279 279 279 277 275 275 276 275 275 274 273 273 271
271 272 274 276 277 279 280 281 282 284 286 288 287 287 286 284 285 284 279 278 276 276 278 280 281 280 280 281 280 277 276 277 277 276 275 274 273 271
271 272 275 276 277 278 280 282 281 282 285 286 287 287 287 286 285 283 281 277 275 276 279 282 283 283 281 280 280 279 279 278 278 278 277 275 274 271
272 273 274 275 276 278 280 281 281 282 283 284 284 285 287 287 287 285 282 278 276 278 280 282 283 284 285 282 280 280 281 280 281 280 278 276 274 272
273 273 274 276 276 277 278 279 280 281 282 283 283 285 287 287 287 285 284 282 280 280 282 283 284 286 288 286 284 283 283 283 284 283 280 279 276 272
275 275 276 276 277 277 277 278 279 279 280 282 282 283 285 287 287 286 284 283 282 281 282 282 283 286 289 290 289 287 286 286 286 285 284 281 277 273
276 276 277 277 276 277 276 278 279 280 281 282 281 282 285 286 287 287 286 284 283 282 282 281 283 286 288 291 291 290 289 289 288 286 286 283 278 274
278 277 277 277 276 276 276 277 279 281 281 282 283 284 285 285 286 286 286 286 285 284 283 283 284 287 288 289 291 291 291 291 290 290 286 284 282 277
278 278 278 277 275 274 275 276 278 280 280 280 282 284 285 284 284 284 285 285 285 283 283 285 286 287 287 289 291 293 293 293 292 292 289 286 283 280
279 278 276 276 276 275 276 277 278 279 280 281 282 283 284 284 284 284 286 286 285 284 283 284 284 285 286 289 291 293 294 294 294 293 292 289 286 284
278 278 277 279 279 278 277 277 278 279 280 281 281 283 283 283 284 284 285 286 286 284 283 283 284 285 285 288 290 293 294 295 295 294 292 290 288 285
279 279 278 279 280 279 279 278 278 279 280 280 281 283 283 284 284 283 285 287 287 286 285 285 285 285 285 287 290 292 294 297 296 293 290 290 289 286
279 280 280 279 279 280 280 280 279 280 280 280 281 282 284 284 284 283 284 286 288 287 287 286 285 285 287 288 290 292 295 296 295 292 288 288 289 289
280 281 282 282 280 279 279 278 278 279 281 281 281 281 283 284 285 285 285 286 287 287 287 286 287 288 288 290 292 293 296 296 295 292 291 288 288 289
281 280 280 280 281 281 280 279 279 279 280 280 282 282 282 282 284 285 285 285 285 285 286 287 288 289 290 292 293 295 296 296 293 291 292 291 288 286
281 281 282 281 280 280 281 281 280 281 282 282 283 283 282 282 284 285 285 286 286 285 285 287 288 288 289 293 294 296 296 296 295 293 294 296 293 288
283 283 283 282 282 282 284 283 281 282 284 285 284 283 283 284 286 288 287 287 288 286 287 287 287 289 291 293 295 297 297 297 296 296 296 295 293 292
283 283 281 280 282 284 284 283 281 283 284 285 285 285 285 287 290 291 289 287 288 289 288 288 290 290 291 293 295 296 298 299 298 297 297 296 296 296
282 282 281 281 282 284 283 281 279 281 281 283 286 286 286 289 292 291 288 287 287 288 289 289 291 291 291 291 294 299 300 300 300 299 299 299 298 297
280 281 282 282 283 285 283 279 278 279 279 282 284 285 285 288 291 292 289 286 286 287 289 290 291 293 294 292 294 296 298 299 300 301 302 302 301 298
279 279 281 281 282 283 282 278 277 279 280 280 282 282 282 284 288 291 292 290 289 290 291 292 294 295 296 296 296 297 297 297 299 302 303 304 304 303
278 277 278 278 278 279 279 277 278 279 278 278 279 279 280 282 286 289 293 294 293 293 293 294 296 298 300 301 299 299 298 296 298 301 303 304 303 303
Height
5816 5816 5816 5816 5816 5815 5815 5815 5815 5814 5813 5812 5811 5810 5809 5809 5808 5808 5808 5807 5807 5806 5806 5806 5805 5805 5805 5804 5804 5803 5803 5802 5802 5801 5801 5800 5799 5799
5811 5811 5811 5811 5811 5810 5809 5809 5809 5808 5808 5807 5806 5805 5804 5803 5803 5802 5802 5801 5801 5800 5800 5799 5799 5798 5798 5797 5796 5795 5795 5794 5793 5793 5792 5791 5790 5789
5806 5806 5806 5805 5805 5804 5804 5803 5803 5802 5802 5801 5800 5799 5798 5797 5797 5796 5795 5795 5794 5794 5793 5793 5792 5791 5791 5789 5788 5788 5787 5786 5785 5784 5783 5782 5781 5780
5800 5800 5800 5799 5799 5798 5798 5797 5797 5796 5796 5795 5794 5793 5792 5791 5791 5790 5789 5788 5788 5787 5787 5786 5785 5784 5783 5782 5781 5779 5778 5777 5776 5775 5774 5773 5771 5771
5794 5794 5794 5793 5793 5792 5792 5791 5790 5790 5789 5789 5788 5787 5786 5785 5784 5783 5782 5782 5781 5780 5780 5779 5778 5777 5775 5774 5773 5771 5770 5769 5767 5766 5764 5763 5762 5761
5787 5787 5787 5786 5786 5785 5785 5784 5784 5783 5782 5782 5782 5781 5780 5779 5778 5777 5776 5775 5774 5773 5772 5772 5771 5769 5768 5766 5765 5763 5762 5760 5758 5756 5755 5753 5752 5751
5780 5780 5779 5779 5778 5778 5778 5777 5777 5776 5776 5776 5775 5774 5773 5772 5771 5770 5769 5768 5767 5766 5765 5765 5764 5762 5760 5758 5757 5755 5753 5751 5749 5747 5745 5743 5742 5741
5773 5773 5772 5771 5771 5771 5770 5770 5770 5769 5769 5768 5768 5767 5766 5765 5764 5763 5762 5761 5760 5760 5758 5757 5756 5755 5753 5751 5749 5747 5744 5742 5740 5738 5736 5734 5732 5731
5765 5765 5764 5764 5764 5763 5763 5763 5762 5762 5761 5761 5760 5760 5759 5758 5756 5756 5754 5753 5753 5752 5751 5750 5748 5747 5745 5743 5741 5739 5737 5734 5732 5729 5727 5724 5722 5721
5758 5757 5757 5756 5756 5756 5755 5755 5755 5754 5754 5753 5753 5752 5751 5750 5749 5748 5747 5746 5745 5744 5743 5742 5741 5739 5738 5735 5733 5731 5729 5726 5724 5721 5718 5716 5714 5712
5750 5750 5749 5749 5748 5748 5748 5748 5747 5747 5746 5746 5745 5744 5743 5742 5741 5740 5739 5738 5738 5737 5736 5734 5733 5732 5730 5728 5726 5724 5721 5719 5716 5713 5710 5708 5706 5704
5743 5742 5742 5741 5740 5740 5740 5740 5740 5739 5739 5738 5738 5737 5736 5735 5734 5732 5731 5730 5729 5729 5728 5726 5725 5724 5723 5721 5719 5716 5714 5711 5709 5706 5703 5701 5699 5697
5735 5734 5734 5733 5733 5732 5732 5731 5731 5731 5730 5730 5730 5729 5728 5727 5726 5725 5724 5723 5722 5721 5720 5718 5717 5716 5714 5713 5712 5709 5707 5705 5702 5699 5697 5695 5693 5692
5727 5726 5726 5725 5725 5724 5724 5724 5723 5723 5722 5722 5721 5721 5720 5719 5718 5717 5716 5715 5714 5713 5711 5710 5710 5709 5707 5706 5704 5703 5700 5698 5696 5693 5691 5689 5688 5687
5719 5719 5718 5718 5717 5717 5716 5715 5715 5715 5714 5713 5713 5713 5712 5711 5710 5709 5708 5707 5706 5705 5704 5703 5702 5701 5700 5699 5698 5696 5694 5692 5689 5687 5685 5684 5682 5681
5711 5710 5710 5710 5709 5708 5708 5707 5707 5706 5706 5706 5705 5705 5704 5703 5703 5702 5701 5700 5699 5698 5697 5696 5695 5694 5693 5692 5691 5689 5687 5685 5684 5681 5679 5678 5676 5675
5703 5703 5702 5702 5701 5701 5700 5699 5699 5699 5698 5698 5697 5697 5697 5696 5695 5694 5694 5693 5692 5692 5691 5690 5689 5688 5687 5686 5685 5684 5682 5680 5678 5676 5674 5672 5670 5669
5696 5696 5695 5695 5694 5694 5693 5693 5693 5692 5692 5691 5691 5691 5690 5690 5689 5689 5688 5687 5686 5685 5685 5685 5684 5683 5682 5681 5680 5678 5677 5675 5673 5671 5669 5667 5665 5663
5690 5690 5689 5688 5688 5687 5687 5687 5687 5687 5686 5686 5685 5685 5685 5684 5684 5683 5682 5682 5681 5680 5680 5679 5679 5678 5677 5676 5675 5673 5672 5670 5668 5666 5664 5662 5661 5659
5684 5684 5683 5682 5682 5681 5681 5681 5681 5681 5681 5681 5681 5680 5680 5679 5679 5678 5677 5677 5676 5675 5675 5674 5674 5673 5672 5671 5670 5669 5667 5665 5663 5661 5659 5657 5656 5653
5679 5678 5677 5677 5676 5676 5676 5676 5676 5676 5676 5676 5676 5676 5675 5675 5674 5673 5673 5672 5671 5671 5670 5669 5669 5668 5666 5666 5665 5663 5662 5660 5658 5657 5655 5653 5651 5649
5673 5673 5672 5672 5672 5672 5671 5671 5672 5672 5672 5671 5671 5671 5671 5670 5670 5669 5669 5668 5668 5667 5666 5665 5664 5663 5662 5661 5659 5658 5657 5655 5654 5652 5650 5648 5646 5644
5667 5667 5667 5667 5667 5667 5667 5667 5667 5667 5667 5667 5666 5666 5666 5666 5666 5665 5665 5664 5663 5662 5661 5660 5659 5658 5657 5655 5654 5653 5652 5650 5649 5648 5646 5644 5642 5640